Orbital Elements at Epoch 2459000.5 (2020-May-31.0) TDB
Reference: JPL 26 (heliocentric ecliptic J2000)
Element | Value | Uncertainty (1-sigma) | Units |
e | .3508225564480527 | 4.4283e-08 | |
a | 2.347689802052859 | 7.8462e-09 | au |
q | 1.524067263949652 | 1.0509e-07 | au |
i | 22.47656157086689 | 3.5567e-06 | deg |
node | 131.6861848864585 | 1.4059e-05 | deg |
peri | 289.7930387515584 | 1.4635e-05 | deg |
M | 243.7101727749151 | 5.6099e-06 | deg |
tp | 2459424.922815060551 (2021-Jul-29.42281506) | 2.1368e-05 | TDB |
period | 1313.891481892576 3.60 | 6.5867e-06 1.803e-08 | d yr |
n | .2739952309314338 | 1.3736e-09 | deg/d |
Q | 3.171312340156066 | 1.0599e-08 | au |
|
| | Orbit Determination Parameters
Additional Information
|